FW5772 Weather Reports


time (UTC)temp
C
wind
direction
speed
KPH
gust
KPH
rain 1hr
cm
rain 24hr
cm
rain mn
cm
humidity
%
barometer
mb
20260505034513 16 85 8.0 14.5 0.00 0.00 0.00 50 1002.4
20260505033008 16 245 4.8 8.0 0.00 0.00 0.00 48 1002.1
20260505031518 16 253 4.8 11.3 0.00 0.00 0.00 49 1001.9
20260505030007 16 250 3.2 11.3 0.00 0.00 0.00 49 1001.3
20260505024506 16 278 4.8 14.5 0.00 0.00 0.00 50 1001.3
20260505023009 16 336 11.3 20.9 0.00 0.00 0.00 50 1001.0
20260505021505 16 284 20.9 29.0 0.00 0.00 0.00 47 1001.0
20260505020005 17 298 16.1 33.8 0.00 0.00 0.00 46 1000.9
20260505014504 17 273 20.9 30.6 0.00 0.00 0.00 43 1000.7
20260505013005 20 296 22.5 38.6 0.00 0.00 0.00 32 1000.2
20260505011504 20 269 9.7 22.5 0.00 0.00 0.00 32 999.9
20260505010003 20 221 12.9 24.1 0.00 0.00 0.00 33 999.9
20260505004502 20 207 14.5 27.4 0.00 0.00 0.00 33 999.9
20260505003002 20 360 16.1 29.0 0.00 0.00 0.00 32 1000.0
20260505001502 21 211 19.3 29.0 0.00 0.00 0.00 31 999.9
20260505000116 21 190 11.3 19.3 0.00 0.00 0.00 33 1000.1
20260504234600 21 175 9.7 22.5 0.00 0.00 0.00 35 1000.1
20260504233111 20 163 9.7 20.9 0.00 0.00 0.00 36 1000.4
20260504231601 21 126 4.8 12.9 0.00 0.00 0.00 34 1000.4
20260504230058 21 183 1.6 4.8 0.00 0.00 0.00 35 1000.6
20260504224607 20 156 0.0 8.0 0.00 0.00 0.00 38 1000.5
20260504223129 20 122 4.8 11.3 0.00 0.00 0.00 39 1000.3
20260504221556 20 140 3.2 11.3 0.00 0.00 0.00 39 1000.6
20260504220056 19 197 3.2 14.5 0.00 0.00 0.00 45 1000.7
20260504214554 20 207 3.2 12.9 0.00 0.00 0.00 44 1000.8
20260504213101 20 319 4.8 14.5 0.00 0.00 0.00 35 1000.9
20260504211550 21 281 9.7 19.3 0.00 0.00 0.00 34 1001.3
20260504210056 21 205 6.4 11.3 0.00 0.00 0.00 33 1001.2
20260504204550 22 97 9.7 17.7 0.00 0.00 0.00 33 1001.5
20260504203104 21 306 9.7 17.7 0.00 0.00 0.00 35 1001.5
20260504201549 21 29 6.4 14.5 0.00 0.00 0.00 35 1001.7
20260504200045 21 38 14.5 19.3 0.00 0.00 0.00 36 1001.9
20260504194542 21 334 3.2 12.9 0.00 0.00 0.00 38 1002.3
20260504193039 21 47 3.2 9.7 0.00 0.00 0.00 39 1002.5
20260504191537 19 340 3.2 6.4 0.00 0.00 0.00 42 1002.6
20260504190037 18 23 1.6 11.3 0.00 0.00 0.00 41 1002.7
20260504184533 18 30 0.0 8.0 0.00 0.00 0.00 43 1003.0
20260504183032 18 20 6.4 14.5 0.00 0.00 0.00 45 1003.2
20260504181538 17 5 9.7 14.5 0.00 0.00 0.00 46 1003.5
20260504180028 17 349 4.8 9.7 0.00 0.00 0.00 46 1003.8
20260504174528 17 9 4.8 12.9 0.00 0.00 0.00 53 1003.9
20260504173028 17 348 11.3 17.7 0.00 0.00 0.00 50 1003.9
20260504171528 18 12 11.3 17.7 0.00 0.00 0.00 45 1004.0
20260504081541 17 116 6.4 14.5 0.00 0.00 0.00 34 1004.9
20260504050025 17 130 3.2 6.4 0.00 0.00 0.00 24 1004.6
20260504044534 17 113 3.2 8.0 0.00 0.00 0.00 24 1004.7
20260504043025 18 104 4.8 11.3 0.00 0.00 0.00 23 1004.7
20260504041523 18 104 8.0 14.5 0.00 0.00 0.00 22 1004.8
20260504040023 19 65 1.6 6.4 0.00 0.00 0.00 21 1004.7